Home   Weather   Rovaniemi   Past weeks
Flag for Finland

Past Weather in Rovaniemi, Finland — Yesterday and Last 2 Weeks

Now
32 °F

Light rain. Low clouds.


Feels Like: 32 °F
Forecast: 36 / 29 °F
Wind: 2 mph from North

Location: Rovaniemi Airport

Current Time: Oct 15, 2019 at 2:28:38 am

Latest Report: Oct 15, 2019 at 1:50 am


Visibility: 3 mi

Pressure: 29.89 "Hg

Humidity: 100%

Dew Point: 32 °F

Location of RovaniemiLocation

Past Weather in Rovaniemi — Graph

°F

Rovaniemi Temperature Yesterday

Maximum temperature yesterday: 34 °F (at 2:50 pm)
Minimum temperature yesterday: 32 °F (at 12:20 am)
Average temperature yesterday: 32 °F

High & Low Weather Summary for the Past Weeks

 TemperatureHumidityPressure
High46 °F (Sep 30, 3:20 pm)100% (Sep 30, 12:20 am)30.18 "Hg (Sep 30, 12:20 am)
Low27 °F (Oct 3, 6:20 am)52% (Oct 2, 1:20 pm)29.12 "Hg (Sep 30, 2:50 am)
Average35 °F90%29.65 "Hg
* Reported Sep 30 12:20 am — Oct 15 12:50 am, Rovaniemi. Weather by CustomWeather, © 2019

Note: Actual official high and low records may vary slightly from our data, if they occured in-between our weather recording intervals... More about our weather records

Advertising

Rovaniemi Weather History for the Previous 24 Hours

Scroll right to see more
 ConditionsComfort  
Time TempWeatherWind HumidityBarometerVisibility
12:50 am
Tue, Oct 15
32 °FIce fog.2 mph100%29.86 "Hg1 mi
12:20 am32 °FIce fog.2 mph100%29.86 "Hg1 mi
11:50 pm
Mon, Oct 14
32 °FLight freezing rain. Low clouds.2 mph100%29.86 "Hg1 mi
11:20 pm32 °FLow clouds.2 mph100%29.86 "Hg1 mi
10:50 pm32 °FFog.2 mph100%29.83 "Hg1 mi
10:20 pm32 °FIce fog.1 mph100%29.83 "Hg1 mi
9:50 pm32 °FLow clouds.1 mph100%29.83 "Hg4 mi
9:20 pm32 °FSprinkles. Low clouds.2 mph100%29.83 "Hg2 mi
8:50 pm32 °FDense fog.3 mph100%29.80 "Hg1 mi
8:20 pm32 °FIce fog.3 mph100%29.80 "Hg1 mi
7:50 pm32 °FIce fog.3 mph100%29.80 "Hg2 mi
7:20 pm32 °FIce fog.3 mph100%29.80 "Hg2 mi
6:50 pm32 °FLight rain. Low clouds.5 mph100%29.77 "Hg4 mi
6:20 pm32 °FLight rain. Mostly cloudy.5 mph100%29.77 "Hg4 mi
5:50 pm32 °FLight rain. Low clouds.5 mph100%29.77 "Hg2 mi
5:20 pm32 °FSprinkles. Low clouds.6 mph100%29.77 "Hg4 mi
4:50 pm34 °FSprinkles. Low clouds.5 mph93%29.74 "HgN/A
4:20 pm34 °FLight rain. Low clouds.5 mph93%29.74 "HgN/A
3:50 pm34 °FLow clouds.5 mph93%29.74 "HgN/A
3:20 pm34 °FLow clouds.5 mph93%29.74 "HgN/A
2:50 pm34 °FLight snow. Broken clouds.3 mph93%29.74 "HgN/A
2:20 pm32 °FBroken clouds.3 mph100%29.74 "HgN/A
1:50 pm32 °FChilly.3 mph100%29.74 "HgN/A
1:20 pm32 °FPartly sunny.3 mph100%29.74 "HgN/A
12:50 pm32 °FChilly.3 mph100%29.74 "Hg3 mi
12:20 pm32 °FPartly sunny.2 mph100%29.71 "HgN/A
11:50 am32 °FPartly sunny.2 mph100%29.71 "HgN/A
11:20 am32 °FLight snow. Partly sunny.3 mph100%29.71 "HgN/A
10:50 am32 °FLight snow. Partly sunny.5 mph93%29.71 "HgN/A
10:20 am32 °FLight snow. Partly sunny.6 mph93%29.71 "Hg3 mi
9:50 am32 °FLight snow. Ice fog.3 mph93%29.68 "Hg2 mi
9:20 am32 °FLight snow. Ice fog.3 mph100%29.68 "Hg1 mi
8:50 am32 °FLight snow. Ice fog.5 mph100%29.68 "Hg1 mi
8:20 am32 °FLight snow. Ice fog.5 mph100%29.68 "Hg1 mi
7:50 am32 °FLight snow. Ice fog.3 mph100%29.68 "Hg1 mi
7:20 am32 °FLight snow. Ice fog.3 mph100%29.68 "Hg2 mi
6:50 am32 °FLight snow. Low clouds.3 mph100%29.68 "Hg4 mi
6:20 am32 °FLight snow. Low clouds.3 mph100%29.68 "HgN/A
5:50 am32 °FLight snow. Low clouds.3 mph100%29.68 "Hg3 mi
5:20 am32 °FSnow flurries. Low clouds.5 mph100%29.68 "Hg2 mi
4:50 am32 °FLight freezing rain. Low clouds.5 mph100%29.68 "HgN/A
4:20 am32 °FSnow flurries. Low clouds.5 mph100%29.68 "HgN/A
3:50 am32 °FLow clouds.3 mph100%29.65 "Hg1 mi
3:20 am32 °FLight snow. Low clouds.5 mph100%29.65 "Hg1 mi
2:50 am32 °FLight snow. Low clouds.5 mph100%29.65 "Hg1 mi
2:20 am32 °FLight freezing rain. Low clouds.5 mph100%29.65 "Hg1 mi
Weather by CustomWeather, © 2019

See weather overview